Location: La Coruña
(43.3623°N, 8.4115°W)
Time: 16:42:25
(UTC+01:00)

STARLINK-1073 - Pass Details

Date: 18 January 2020
Orbit: 549 x 550 km, 53.0° (Epoch: 28 February)

Event Time Altitude Azimuth Distance (km) Brightness Sun altitude
Rises 19:08:34 0° 244° (WSW) 2,713 9.6 -7.8°
Reaches altitude 10° 19:10:49 10° 248° (WSW) 1,822 8.0 -8.2°
Maximum altitude 19:14:55 60° 329° (NNW) 635 4.0 -8.9°
Enters shadow 19:18:51 11° 49° (NE) 1,758 5.6 -9.6°
